Location: Hains Lake
(37.8540°N, 99.8578°W)
Time: 01:19:12
(UTC+00:00)

Transit 2A - Pass Details

Date: 23 April 2021
Orbit: 602 x 957 km, 66.7° (Epoch: 14 May)

Event Time Altitude Azimuth Distance (km) Brightness Sun altitude
Rises 21:32:54 0° 337° (NNW) 2,886 9.0 43.8°
Reaches altitude 10° 21:35:09 10° 342° (NNW) 2,003 8.3 43.4°
Maximum altitude 21:39:33 52° 60° (ENE) 816 6.3 42.5°
Drops below altitude 10° 21:44:15 10° 136° (SE) 2,151 8.2 41.7°
Sets 21:46:45 0° 141° (SE) 3,124 9.0 41.2°
